Tracking 23586 objects as of 6-Aug-2021
HD Live streaming from Space Station
objects crossing your sky now

BRICSAT 2 (NO-103)

Track BRICSAT 2 (NO-103) now!
10-day predictions
BRICSAT 2 (NO-103) is classified as:


NORAD ID: 44355
Int'l Code: 2019-036S
Perigee: 302.0 km
Apogee: 642.8 km
Inclination: 28.5 °
Period: 93.9 minutes
Semi major axis: 6843 km
RCS: Unknown
Launch date: June 25, 2019
Source: United States (US)
Launch site: AIR FORCE EASTERN TEST RANGE (AFETR)

Uplink (MHz): 28.120/145.825
Downlink (MHz): 145.825/435.350/437.605
Beacon (MHz):
Mode: 1k2/9k6 FSK
Call sign: USNAP1-1
Status: Inactive

aabbcc
Your satellite tracking list
Your tracking list is empty




NASA's NSSDC Master Catalog

Two Line Element Set (TLE):
1 44355U 19036S   21216.03600080  .00033513 -57287-5  33146-3 0  9999
2 44355  28.5255 116.0962 0249023 159.4537 201.6278 15.33540392116738
Source of the keplerian elements: AFSPC